• In France
  • List of Countries
  • For 7 days
  • Water Temperature
  • Satellite Maps
  • Weather Map
  • Weather Widgets
  • user-avatar
    Login

    Hourly Weather Armawir

    Today, 21 July, Saturday

    Time Temperature Precipitation Wind Pressure Humidity
    00:00 +25°C° 0 mm 3 mps 682 mmHg 53%
    01:00 +24°C° 0 mm 3 mps 682 mmHg 56%
    02:00 +22°C° 0 mm 3 mps 682 mmHg 59%
    03:00 +21°C° 0 mm 2 mps 682 mmHg 60%
    04:00 +23°C° 0 mm 2 mps 682 mmHg 60%
    05:00 +23°C° 0 mm 2 mps 682 mmHg 60%
    06:00 +23°C° 0 mm 2 mps 683 mmHg 60%
    07:00 +25°C° 0 mm 2 mps 683 mmHg 54%
    08:00 +27°C° 0 mm 2 mps 683 mmHg 47%
    09:00 +29°C° 0 mm 2 mps 683 mmHg 41%
    10:00 +31°C° 0.1 mm 2 mps 683 mmHg 37%
    11:00 +32°C° 0.1 mm 2 mps 683 mmHg 33%
    12:00 +34°C° 0.1 mm 2 mps 683 mmHg 29%
    13:00 +35°C° 0.1 mm 2 mps 683 mmHg 27%
    14:00 +35°C° 0.1 mm 2 mps 683 mmHg 26%
    15:00 +36°C° 0.1 mm 2 mps 683 mmHg 25%
    16:00 +35°C° 0.2 mm 3 mps 683 mmHg 28%
    17:00 +34°C° 0.2 mm 4 mps 683 mmHg 32%
    18:00 +34°C° 0.2 mm 4 mps 683 mmHg 35%
    19:00 +30°C° 0.3 mm 4 mps 683 mmHg 43%
    20:00 +28°C° 0.3 mm 3 mps 683 mmHg 50%
    21:00 +26°C° 0.3 mm 3 mps 683 mmHg 58%
    22:00 +25°C° 0.2 mm 3 mps 683 mmHg 61%
    23:00 +24°C° 0.2 mm 3 mps 683 mmHg 64%

    Tomorrow, 22 July, Sunday

    Time Temperature Precipitation Wind Pressure Humidity
    00:00 +24°C° 0.2 mm 3 mps 684 mmHg 66%
    01:00 +23°C° 0.1 mm 2 mps 684 mmHg 69%
    02:00 +23°C° 0.1 mm 2 mps 683 mmHg 71%
    03:00 +21°C° 0.1 mm 2 mps 683 mmHg 73%
    04:00 +21°C° 0 mm 2 mps 683 mmHg 72%
    05:00 +23°C° 0 mm 2 mps 684 mmHg 71%
    06:00 +23°C° 0 mm 2 mps 684 mmHg 70%
    07:00 +25°C° 0 mm 2 mps 684 mmHg 63%
    08:00 +27°C° 0 mm 2 mps 684 mmHg 56%
    09:00 +29°C° 0 mm 2 mps 684 mmHg 49%
    10:00 +30°C° 0.1 mm 2 mps 684 mmHg 44%
    11:00 +31°C° 0.1 mm 2 mps 683 mmHg 39%
    12:00 +34°C° 0.1 mm 2 mps 683 mmHg 34%
    13:00 +34°C° 0.2 mm 2 mps 683 mmHg 32%
    14:00 +35°C° 0.2 mm 3 mps 683 mmHg 31%
    15:00 +35°C° 0.2 mm 3 mps 682 mmHg 30%
    16:00 +34°C° 0.5 mm 3 mps 682 mmHg 34%
    17:00 +31°C° 0.5 mm 3 mps 682 mmHg 38%
    18:00 +30°C° 0.5 mm 3 mps 682 mmHg 42%
    19:00 +28°C° 0.3 mm 3 mps 682 mmHg 47%
    20:00 +27°C° 0.3 mm 2 mps 682 mmHg 51%
    21:00 +25°C° 0.3 mm 2 mps 683 mmHg 56%
    22:00 +25°C° 0.2 mm 2 mps 683 mmHg 59%
    23:00 +24°C° 0.2 mm 2 mps 682 mmHg 62%

    Day after tomorrow, 23 July, Monday

    Time Temperature Precipitation Wind Pressure Humidity
    00:00 +23°C° 0.2 mm 2 mps 682 mmHg 65%
    01:00 +23°C° 0.2 mm 2 mps 682 mmHg 68%
    02:00 +23°C° 0.2 mm 2 mps 682 mmHg 70%
    03:00 +21°C° 0.2 mm 2 mps 682 mmHg 73%
    04:00 +21°C° 0.1 mm 2 mps 682 mmHg 73%
    05:00 +23°C° 0.1 mm 2 mps 682 mmHg 73%
    06:00 +23°C° 0.1 mm 2 mps 682 mmHg 73%
    07:00 +25°C° 0.1 mm 2 mps 682 mmHg 65%
    08:00 +26°C° 0.1 mm 2 mps 682 mmHg 57%
    09:00 +28°C° 0.1 mm 2 mps 682 mmHg 50%
    10:00 +30°C° 0.4 mm 2 mps 682 mmHg 45%
    11:00 +31°C° 0.4 mm 2 mps 682 mmHg 40%
    12:00 +34°C° 0.4 mm 2 mps 682 mmHg 35%
    13:00 +34°C° 0.3 mm 2 mps 682 mmHg 34%
    14:00 +34°C° 0.3 mm 2 mps 681 mmHg 34%
    15:00 +33°C° 0.3 mm 1 mps 681 mmHg 33%
    16:00 +32°C° 0.9 mm 2 mps 681 mmHg 38%
    17:00 +31°C° 0.9 mm 2 mps 681 mmHg 43%
    18:00 +29°C° 0.9 mm 3 mps 681 mmHg 49%
    19:00 +28°C° 0.5 mm 2 mps 681 mmHg 53%
    20:00 +27°C° 0.5 mm 2 mps 682 mmHg 58%
    21:00 +25°C° 0.5 mm 2 mps 682 mmHg 62%
    22:00 +25°C° 1 mm 2 mps 682 mmHg 66%
    23:00 +24°C° 1 mm 2 mps 682 mmHg 69%

    24 July, Tuesday

    Time Temperature Precipitation Wind Pressure Humidity
    00:00 +23°C° 1 mm 2 mps 682 mmHg 72%
    01:00 +23°C° 0.5 mm 1 mps 682 mmHg 74%
    02:00 +23°C° 0.5 mm 1 mps 682 mmHg 76%
    03:00 +22°C° 0.5 mm 1 mps 682 mmHg 77%
    04:00 +23°C° 0.1 mm 1 mps 682 mmHg 75%
    05:00 +23°C° 0.1 mm 1 mps 682 mmHg 73%
    06:00 +23°C° 0.1 mm 1 mps 683 mmHg 71%
    07:00 +25°C° 0.1 mm 1 mps 683 mmHg 63%
    08:00 +27°C° 0.1 mm 1 mps 683 mmHg 54%
    09:00 +29°C° 0.1 mm 2 mps 683 mmHg 46%
    10:00 +30°C° 0.1 mm 2 mps 683 mmHg 41%
    11:00 +32°C° 0.1 mm 2 mps 683 mmHg 36%
    12:00 +35°C° 0.1 mm 2 mps 683 mmHg 31%
    13:00 +35°C° 0 mm 2 mps 682 mmHg 30%
    14:00 +36°C° 0 mm 2 mps 682 mmHg 28%
    15:00 +36°C° 0 mm 2 mps 682 mmHg 27%
    16:00 +36°C° 0 mm 2 mps 682 mmHg 28%
    17:00 +35°C° 0 mm 2 mps 682 mmHg 30%
    18:00 +35°C° 0 mm 2 mps 682 mmHg 31%
    19:00 +32°C° 0 mm 2 mps 683 mmHg 36%
    20:00 +30°C° 0 mm 2 mps 683 mmHg 40%
    21:00 +28°C° 0 mm 2 mps 683 mmHg 44%
    22:00 +27°C° 0 mm 2 mps 683 mmHg 48%
    23:00 +27°C° 0 mm 2 mps 684 mmHg 52%

    25 July, Wednesday

    Time Temperature Precipitation Wind Pressure Humidity
    00:00 +26°C° 0 mm 2 mps 684 mmHg 55%
    01:00 +26°C° 0 mm 1 mps 684 mmHg 57%
    02:00 +25°C° 0 mm 1 mps 683 mmHg 59%
    03:00 +25°C° 0 mm 1 mps 683 mmHg 60%
    04:00 +25°C° 0 mm 1 mps 684 mmHg 59%
    05:00 +26°C° 0 mm 1 mps 684 mmHg 58%
    06:00 +26°C° 0 mm 1 mps 684 mmHg 57%
    07:00 +28°C° 0 mm 1 mps 684 mmHg 49%
    08:00 +30°C° 0 mm 2 mps 684 mmHg 40%
    09:00 +34°C° 0 mm 2 mps 685 mmHg 32%
    10:00 +35°C° 0 mm 2 mps 684 mmHg 29%
    11:00 +37°C° 0 mm 2 mps 684 mmHg 26%
    12:00 +38°C° 0 mm 3 mps 684 mmHg 23%
    13:00 +39°C° 0 mm 3 mps 684 mmHg 22%
    14:00 +39°C° 0 mm 3 mps 683 mmHg 21%
    15:00 +40°C° 0 mm 3 mps 683 mmHg 20%
    16:00 +39°C° 0 mm 3 mps 683 mmHg 22%
    17:00 +38°C° 0 mm 3 mps 683 mmHg 24%
    18:00 +38°C° 0 mm 2 mps 683 mmHg 27%
    19:00 +35°C° 0 mm 2 mps 683 mmHg 33%
    20:00 +32°C° 0 mm 2 mps 683 mmHg 40%
    21:00 +29°C° 0 mm 2 mps 683 mmHg 47%
    22:00 +29°C° 0 mm 2 mps 683 mmHg 50%
    23:00 +28°C° 0 mm 2 mps 683 mmHg 53%

    26 July, Thursday

    Time Temperature Precipitation Wind Pressure Humidity
    00:00 +28°C° 0 mm 2 mps 683 mmHg 56%
    01:00 +27°C° 0 mm 2 mps 683 mmHg 57%
    02:00 +27°C° 0 mm 2 mps 683 mmHg 59%
    03:00 +26°C° 0 mm 2 mps 683 mmHg 60%
    04:00 +27°C° 0 mm 2 mps 683 mmHg 60%
    05:00 +27°C° 0 mm 2 mps 684 mmHg 59%
    06:00 +27°C° 0 mm 2 mps 684 mmHg 59%
    07:00 +30°C° 0 mm 2 mps 684 mmHg 50%
    08:00 +32°C° 0 mm 2 mps 684 mmHg 42%
    09:00 +35°C° 0 mm 2 mps 684 mmHg 34%
    10:00 +37°C° 0 mm 2 mps 684 mmHg 30%
    11:00 +39°C° 0 mm 3 mps 684 mmHg 26%
    12:00 +40°C° 0 mm 3 mps 684 mmHg 23%
    13:00 +42°C° 0 mm 3 mps 683 mmHg 21%
    14:00 +43°C° 0 mm 3 mps 683 mmHg 20%
    15:00 +43°C° 0 mm 3 mps 683 mmHg 18%
    16:00 +42°C° 0 mm 4 mps 683 mmHg 21%
    17:00 +41°C° 0 mm 4 mps 683 mmHg 24%
    18:00 +40°C° 0 mm 4 mps 683 mmHg 27%
    19:00 +37°C° 0 mm 4 mps 683 mmHg 35%
    20:00 +34°C° 0 mm 3 mps 683 mmHg 44%
    21:00 +30°C° 0 mm 3 mps 683 mmHg 52%
    22:00 +30°C° 0 mm 3 mps 683 mmHg 54%
    23:00 +29°C° 0 mm 3 mps 683 mmHg 55%
    Show more